Data for 07/18/2018

Time Sea-Level Adjusted Pressure Absolute Pressure Temperature Relative Humidity Dew Point   
(mb) (inHg) (mb) (inHg) (C) (F) (%) (C) (F)
00:05 1023 30.21 852 25.16 15 59 60 7.4 45.4
00:10 1023 30.21 852 25.16 15 59 59 7.2 45
00:15 1023 30.21 852 25.16 15.1 59.1 57 6.8 44.3
00:20 1023 30.21 852 25.16 15.4 59.7 54 6.3 43.3
00:25 1023 30.21 852 25.16 15.6 60 55 6.6 43.9
00:30 1023 30.21 852 25.16 15.4 59.7 56 6.8 44.3
00:35 1023 30.21 852 25.16 15.2 59.3 57 6.8 44.2
00:40 1023 30.21 852 25.16 14.8 58.7 57 6.6 43.8
00:45 1023 30.21 852 25.16 14.8 58.7 57 6.4 43.6
00:50 1023 30.21 852 25.16 14.8 58.6 56 6.2 43.2
00:55 1023 30.21 852 25.16 15 59 53 5.6 42
01:00 1023 30.21 852 25.16 15.4 59.6 52 5.5 41.9
01:05 1023 30.21 852 25.16 15.6 60.1 52 5.8 42.5
01:10 1023 30.21 852 25.16 15.5 59.8 50 5.1 41.2
01:15 1023 30.21 852 25.16 15.4 59.8 52 5.8 42.5
01:20 1023 30.21 852 25.16 15.1 59.3 53 5.6 42.1
01:25 1022 30.18 852 25.16 15.1 59.1 53 5.8 42.4
01:30 1023 30.21 852 25.16 14.8 58.7 55 6 42.8
01:35 1023 30.21 852 25.16 14.8 58.7 55 5.8 42.5
01:40 1023 30.21 852 25.16 15 59 53 5.5 41.8
01:45 1023 30.21 852 25.16 14.9 58.8 53 5.5 41.9
01:50 1023 30.21 852 25.16 14.8 58.6 53 5.4 41.8
01:55 1023 30.21 852 25.16 14.8 58.6 53 5.5 41.9
02:00 1022 30.18 852 25.16 14.7 58.4 55 5.7 42.2
02:05 1022 30.18 852 25.16 14.5 58.1 54 5.5 41.8
02:10 1022 30.18 852 25.16 14.5 58.1 53 5.1 41.3
02:15 1023 30.21 852 25.16 14.6 58.3 52 5 41
02:20 1023 30.21 852 25.16 14.6 58.3 53 5.2 41.3
02:25 1023 30.21 852 25.16 14.6 58.2 53 5.2 41.3
02:30 1022 30.18 852 25.16 14.4 57.9 53 5.1 41.1
02:35 1022 30.18 852 25.16 14.4 57.8 54 5.1 41.3
02:40 1022 30.18 852 25.16 14.5 58 53 5.2 41.3
02:45 1022 30.18 852 25.16 14.6 58.2 53 5.1 41.1
02:50 1022 30.18 852 25.16 14.5 58.2 52 4.9 40.8
02:55 1022 30.18 852 25.16 14.3 57.7 54 5.2 41.3
03:00 1022 30.18 852 25.16 14 57.1 54 4.9 40.8
03:05 1022 30.18 852 25.16 14.3 57.8 51 4.4 40
03:10 1022 30.18 852 25.16 14.7 58.4 52 5.1 41.3
03:15 1022 30.18 852 25.16 14.2 57.6 53 4.8 40.6
03:20 1022 30.18 852 25.16 14.1 57.4 52 4.5 40
03:25 1022 30.18 852 25.16 14.3 57.7 52 4.5 40.1
03:30 1022 30.18 852 25.16 14.1 57.4 53 4.8 40.7
03:35 1022 30.18 852 25.16 14 57.1 52 4.4 39.9
03:40 1023 30.21 852 25.16 14.1 57.4 54 5 40.9
03:45 1023 30.21 852 25.16 14.4 58 51 4.5 40
03:50 1023 30.21 852 25.16 14.5 58.1 51 4.6 40.3
03:55 1023 30.21 852 25.16 14.2 57.6 54 5.2 41.4
04:00 1023 30.21 852 25.16 13.9 57.1 54 4.9 40.9
04:05 1023 30.21 852 25.16 13.9 56.9 54 4.8 40.6
04:10 1022 30.18 852 25.16 13.9 57 54 4.7 40.5
04:15 1023 30.21 852 25.16 13.7 56.7 55 4.8 40.6
04:20 1022 30.18 852 25.16 13.8 56.8 54 4.6 40.3
04:25 1022 30.18 852 25.16 13.9 57.1 53 4.5 40.1
04:30 1022 30.18 852 25.16 14.1 57.5 52 4.5 40.1
04:35 1022 30.18 852 25.16 14.1 57.4 53 4.9 40.8
04:40 1022 30.18 852 25.16 13.8 56.8 55 4.9 40.8
04:45 1022 30.18 852 25.16 13.5 56.4 57 5.1 41.2
04:50 1022 30.18 852 25.16 13.4 56.1 57 5 41
04:55 1022 30.18 852 25.16 13.5 56.2 57 5.1 41.2
05:00 1023 30.21 852 25.16 13.5 56.2 58 5.4 41.7
05:05 1023 30.21 852 25.16 13.4 56 59 5.5 41.9
05:10 1022 30.18 852 25.16 13.4 56.2 59 5.6 42
05:15 1022 30.18 852 25.16 13.2 55.8 60 5.7 42.3
05:20 1023 30.21 852 25.16 12.9 55.1 61 5.7 42.2
05:25 1023 30.21 852 25.16 13 55.3 61 5.6 42.1
05:30 1023 30.21 852 25.16 12.7 54.8 60 5.3 41.5
05:35 1023 30.21 852 25.16 12.6 54.7 60 5.1 41.1
05:40 1023 30.21 852 25.16 12.7 54.8 60 5.1 41.2
05:45 1023 30.21 852 25.16 13.1 55.7 57 4.9 40.7
05:50 1023 30.21 852 25.16 13.3 56 56 4.9 40.7
05:55 1023 30.21 852 25.16 13.5 56.3 56 5 40.9
06:00 1023 30.21 852 25.16 13.3 55.9 56 4.9 40.8
06:05 1023 30.21 852 25.16 13.1 55.6 60 5.6 42
06:10 1023 30.21 852 25.16 13 55.4 57 4.9 40.8
06:15 1023 30.21 852 25.16 13.3 55.9 57 5.1 41.1
06:20 1023 30.21 852 25.16 13.4 56.2 59 5.6 42
06:25 1023 30.21 852 25.16 13.5 56.2 58 5.5 41.8
06:30 1023 30.21 852 25.16 13.3 55.9 59 5.4 41.7
06:35 1023 30.21 852 25.16 13.3 55.9 58 5.4 41.6
06:40 1023 30.21 852 25.16 13.2 55.8 59 5.4 41.6
06:45 1023 30.21 852 25.16 13.4 56.1 57 5.2 41.4
06:50 1023 30.21 852 25.16 13.7 56.7 57 5.4 41.7
06:55 1023 30.21 852 25.16 13.7 56.7 58 5.5 42
07:00 1023 30.21 852 25.16 13.8 56.8 58 5.6 42.2
07:05 1023 30.21 852 25.16 14 57.3 55 5.3 41.5
07:10 1023 30.21 852 25.16 14.3 57.7 56 5.8 42.5
07:15 1023 30.21 852 25.16 14.4 57.9 57 6.1 43.1
07:20 1023 30.21 852 25.16 14.5 58.1 59 6.6 44
07:25 1023 30.21 852 25.16 14.4 57.9 58 6.3 43.4
07:30 1023 30.21 852 25.16 14.5 58.1 55 5.7 42.3
07:35 1023 30.21 852 25.16 15.1 59.1 54 5.8 42.5
07:40 1023 30.21 852 25.16 15.5 59.8 54 6.3 43.4
07:45 1023 30.21 852 25.16 15.9 60.6 54 6.6 43.9
07:50 1023 30.21 852 25.16 16.3 61.4 52 6.7 44
07:55 1023 30.21 852 25.16 16.3 61.4 51 6.4 43.5
08:00 1023 30.21 852 25.16 16.7 62.1 50 6.3 43.3
08:05 1023 30.21 852 25.16 17.2 62.9 51 7.2 44.9
08:10 1023 30.21 852 25.16 17.3 63.1 50 7 44.5
08:15 1023 30.21 852 25.16 17.4 63.4 49 6.8 44.2
08:20 1023 30.21 852 25.16 18 64.5 53 8.3 46.9
08:25 1023 30.21 852 25.16 18.1 64.6 47 6.8 44.2
08:30 1023 30.21 852 25.16 18.4 65.1 47 7 44.6
08:35 1023 30.21 852 25.16 18.9 66.1 46 7.1 44.7
08:40 1023 30.21 852 25.16 19.3 66.8 43 6.7 44
08:45 1023 30.21 852 25.16 19.6 67.2 43 6.9 44.4
08:50 1023 30.21 852 25.16 20 67.9 44 7.4 45.3
08:55 1023 30.21 852 25.16 20.6 69 42 7.2 45
09:00 1023 30.21 852 25.16 20.1 68.2 43 7.3 45.2
09:05 1023 30.21 852 25.16 20.8 69.4 38 6.2 43.1
09:10 1023 30.21 852 25.16 20.8 69.4 35 4.8 40.6
09:15 1023 30.21 852 25.16 20.5 69 36 5 41.1
09:20 1023 30.21 852 25.16 21.4 70.4 38 6.6 44
09:25 1023 30.21 852 25.16 21.6 70.8 34 5 41
09:30 1023 30.21 852 25.16 21.6 70.8 35 5.7 42.2
09:35 1023 30.21 852 25.16 22.7 72.9 35 6.8 44.3
09:40 1023 30.21 852 25.16 22.5 72.4 34 6.1 42.9
09:45 1023 30.21 852 25.16 22.1 71.8 35 6.2 43.1
09:50 1023 30.21 852 25.16 22.5 72.5 33 5.7 42.3
09:55 1023 30.21 852 25.16 23.4 74.1 32 6 42.8
10:00 1023 30.21 852 25.16 23.8 74.8 31 6 42.8
10:05 1023 30.21 852 25.16 23.9 75.1 31 6.2 43.2
10:10 1023 30.21 852 25.16 23.8 74.8 28 4.5 40.1
10:15 1022 30.18 852 25.16 24.2 75.5 27 4.1 39.4
10:20 1022 30.18 852 25.16 23.9 75.1 31 6.1 43
10:25 1022 30.18 852 25.16 24.4 75.8 28 5 41.1
10:30 1022 30.18 852 25.16 24.8 76.6 28 5.5 41.9
10:35 1022 30.18 851 25.13 24.9 76.7 30 6.1 43
10:40 1022 30.18 851 25.13 25.2 77.4 28 5.6 42
10:45 1022 30.18 851 25.13 26 78.8 26 5.1 41.3
10:50 1022 30.18 851 25.13 26.6 79.8 26 5.6 42.1
10:55 1022 30.18 851 25.13 26.8 80.2 25 5.4 41.7
11:00 1022 30.18 851 25.13 27.1 80.8 25 5.9 42.6
11:05 1022 30.18 851 25.13 26.7 80 26 5.7 42.3
11:10 1022 30.18 851 25.13 27 80.5 25 5.4 41.7
11:15 1022 30.18 851 25.13 26.5 79.7 24 4.6 40.3
11:20 1022 30.18 851 25.13 26.8 80.2 23 4.3 39.8
11:25 1022 30.18 851 25.13 27.5 81.5 22 4.4 40
11:30 1022 30.18 851 25.13 28.7 83.6 21 4.8 40.6
11:35 1022 30.18 851 25.13 28.5 83.3 22 5.2 41.4
11:40 1022 30.18 851 25.13 27.6 81.8 22 4.4 39.9
11:45 1022 30.18 851 25.13 27.5 81.4 22 3.9 39.1
11:50 1022 30.18 851 25.13 27.6 81.7 21 3.5 38.4
11:55 1022 30.18 851 25.13 28 82.4 21 3.8 38.8
12:00 1022 30.18 851 25.13 27.8 82 21 4.1 39.4
12:05 1021 30.15 851 25.13 28 82.5 20 3.5 38.4
12:10 1021 30.15 851 25.13 28.6 83.5 20 4.1 39.3
12:15 1021 30.15 851 25.13 28.3 82.9 21 3.9 39.1
12:20 1021 30.15 851 25.13 27.5 81.5 21 3.6 38.5
12:25 1021 30.15 850 25.1 28.3 82.9 22 4.9 40.8
12:30 1021 30.15 850 25.1 28.7 83.7 20 3.7 38.7
12:35 1021 30.15 850 25.1 29.4 84.9 20 4.1 39.4
12:40 1021 30.15 850 25.1 29.8 85.7 20 5 41.1
12:45 1021 30.15 850 25.1 29.9 85.9 19 3.9 39
12:50 1021 30.15 850 25.1 30.4 86.7 19 4.5 40
12:55 1021 30.15 850 25.1 30.4 86.7 20 5.1 41.2
13:00 1021 30.15 850 25.1 30.7 87.2 19 4.4 40
13:05 1021 30.15 850 25.1 29.7 85.4 20 4.9 40.8
13:10 1021 30.15 850 25.1 30 86 20 5.1 41.2
13:15 1021 30.15 850 25.1 30.6 87 19 4.4 39.9
13:20 1021 30.15 850 25.1 30.6 87.1 18 3.9 39
13:25 1021 30.15 850 25.1 30.9 87.6 19 4.8 40.7
13:30 1021 30.15 850 25.1 31.2 88.1 18 4.7 40.4
13:35 1021 30.15 850 25.1 31.2 88.1 18 4.8 40.6
13:40 1020 30.12 850 25.1 31.6 88.8 19 5.2 41.4
13:45 1020 30.12 850 25.1 31.9 89.4 18 4.7 40.5
13:50 1020 30.12 849 25.07 30.8 87.4 18 3.9 39
13:55 1020 30.12 849 25.07 29.7 85.4 17 2.5 36.5
14:00 1020 30.12 849 25.07 29.3 84.8 22 5.6 42.1
14:05 1020 30.12 849 25.07 29.1 84.3 24 6.7 44.1
14:10 1020 30.12 849 25.07 28.1 82.5 24 6.1 42.9
14:15 1020 30.12 849 25.07 28.1 82.6 25 6.7 44
14:20 1020 30.12 849 25.07 28.2 82.8 22 4.8 40.7
14:25 1020 30.12 849 25.07 28.1 82.6 20 3.6 38.4
14:30 1020 30.12 849 25.07 28.5 83.2 21 4.2 39.5
14:35 1020 30.12 849 25.07 29.8 85.7 19 4.4 39.8
14:40 1020 30.12 849 25.07 31.4 88.6 17 4 39.3
14:45 1020 30.12 849 25.07 30.2 86.4 19 4.2 39.6
14:50 1020 30.12 849 25.07 29.9 85.7 18 3.1 37.5
14:55 1020 30.12 849 25.07 30.1 86.1 19 4.4 39.9
15:00 1020 30.12 849 25.07 29.5 85 19 3.8 38.8
15:05 1020 30.12 849 25.07 29 84.2 19 3.6 38.6
15:10 1020 30.12 849 25.07 28.9 83.9 21 4.6 40.2
15:15 1020 30.12 849 25.07 28.6 83.6 30 9.5 49.1
15:20 1020 30.12 849 25.07 28.3 82.9 19 3 37.4
15:25 1019 30.09 849 25.07 29.4 84.8 19 3.5 38.3
15:30 1019 30.09 848 25.04 30.4 86.6 17 3.3 37.9
15:35 1019 30.09 848 25.04 31 87.8 17 3.1 37.5
15:40 1019 30.09 848 25.04 31.8 89.2 17 4.2 39.6
15:45 1019 30.09 848 25.04 31.9 89.4 18 5.3 41.5
15:50 1019 30.09 849 25.07 31 87.9 18 4.7 40.4
15:55 1019 30.09 849 25.07 31.4 88.6 17 4.1 39.3
16:00 1019 30.09 848 25.04 31.5 88.7 15 2.3 36.2
16:05 1019 30.09 848 25.04 31.5 88.6 17 3.8 38.8
16:10 1019 30.09 848 25.04 31.1 88.1 17 3.9 39
16:15 1019 30.09 848 25.04 30.9 87.6 16 2.4 36.3
16:20 1019 30.09 848 25.04 30.1 86.2 16 2.3 36.2
16:25 1020 30.12 849 25.07 28 82.3 19 2.5 36.6
16:30 1020 30.12 849 25.07 26.9 80.5 19 1.9 35.4
16:35 1020 30.12 849 25.07 26.8 80.2 20 2.4 36.3
16:40 1019 30.09 849 25.07 26.8 80.3 20 2.3 36.2
16:45 1019 30.09 849 25.07 26.7 80 19 1.8 35.2
16:50 1019 30.09 849 25.07 26.9 80.4 20 2.2 36
16:55 1020 30.12 849 25.07 27.2 80.9 20 2.6 36.8
17:00 1019 30.09 849 25.07 27.6 81.8 19 2.5 36.6
17:05 1019 30.09 849 25.07 28 82.3 19 2.5 36.5
17:10 1019 30.09 849 25.07 27.8 82 18 1.5 34.8
17:15 1019 30.09 849 25.07 28.1 82.5 15 -0.4 31.3
17:20 1019 30.09 849 25.07 28.2 82.8 17 1 33.8
17:25 1019 30.09 849 25.07 28.4 83.1 15 -0.1 31.8
17:30 1019 30.09 849 25.07 28.7 83.6 15 0.2 32.3
17:35 1019 30.09 849 25.07 28.9 84 14 -0.6 31
17:40 1020 30.12 849 25.07 29.2 84.5 13 -2.2 28
17:45 1019 30.09 849 25.07 29.2 84.6 14 -0.4 31.3
17:50 1019 30.09 849 25.07 29.8 85.6 13 -1.3 29.6
17:55 1019 30.09 849 25.07 29.7 85.5 14 -0.7 30.7
18:00 1019 30.09 849 25.07 29.2 84.5 14 -0.9 30.3
18:05 1019 30.09 849 25.07 28.7 83.7 13 -1.9 28.6
18:10 1019 30.09 849 25.07 28.3 82.9 13 -2.2 28
18:15 1019 30.09 849 25.07 28.5 83.4 14 -1.6 29.1
18:20 1019 30.09 849 25.07 29 84.3 14 -0.8 30.6
18:25 1019 30.09 848 25.04 29.1 84.3 13 -1.5 29.3
18:30 1019 30.09 848 25.04 29.2 84.5 13 -1.5 29.3
18:35 1019 30.09 848 25.04 28.8 83.8 13 -2.2 28.1
18:40 1019 30.09 848 25.04 28.4 83.2 13 -2.6 27.4
18:45 1019 30.09 848 25.04 27.8 82.1 14 -2.2 28
18:50 1019 30.09 848 25.04 27.6 81.7 13 -2.7 27.1
18:55 1019 30.09 848 25.04 27.6 81.7 14 -1.8 28.8
19:00 1019 30.09 848 25.04 27.5 81.5 15 -1.1 29.9
19:05 1019 30.09 848 25.04 27.8 82 15 -1.4 29.5
19:10 1019 30.09 848 25.04 27.8 82.1 14 -1.7 29
19:15 1019 30.09 848 25.04 27.9 82.3 14 -1.7 29
19:20 1019 30.09 848 25.04 27.9 82.2 21 3.7 38.7
19:25 1019 30.09 848 25.04 26.7 80 24 5 40.9
19:30 1019 30.09 848 25.04 26.3 79.3 25 4.7 40.4
19:35 1019 30.09 848 25.04 26.1 79.1 23 3.7 38.7
19:40 1019 30.09 848 25.04 26.1 79 24 4.5 40.1
19:45 1019 30.09 848 25.04 25.9 78.7 27 5.9 42.6
19:50 1019 30.09 848 25.04 25.5 77.9 29 6.3 43.3
19:55 1019 30.09 848 25.04 25.3 77.6 28 5.5 42
20:00 1019 30.09 848 25.04 25.1 77.2 29 5.9 42.6
20:05 1019 30.09 848 25.04 24.9 76.9 29 5.9 42.6
20:10 1019 30.09 848 25.04 24.6 76.4 30 6.1 42.9
20:15 1019 30.09 848 25.04 24.4 75.8 31 6.2 43.2
20:20 1019 30.09 848 25.04 23.8 74.8 32 6.5 43.6
20:25 1019 30.09 848 25.04 23.8 74.8 32 6.2 43.2
20:30 1019 30.09 848 25.04 23.8 74.8 34 7.2 44.9
20:35 1019 30.09 848 25.04 24 75.1 32 6.4 43.6
20:40 1019 30.09 848 25.04 23.8 74.8 32 6.2 43.1
20:45 1019 30.09 848 25.04 23.6 74.4 32 5.9 42.7
20:50 1019 30.09 848 25.04 23.5 74.3 32 6.2 43.1
20:55 1019 30.09 848 25.04 23.1 73.5 33 5.9 42.7
21:00 1019 30.09 848 25.04 22.7 72.9 33 5.8 42.4
21:05 1019 30.09 848 25.04 22.6 72.6 32 5.4 41.8
21:10 1019 30.09 848 25.04 22.5 72.4 33 5.6 42
21:15 1019 30.09 849 25.07 22.4 72.3 33 5.7 42.3
21:20 1019 30.09 849 25.07 22.3 72.1 33 5.3 41.6
21:25 1019 30.09 849 25.07 22.2 71.9 34 5.6 42.1
21:30 1019 30.09 849 25.07 22 71.6 34 5.6 42
21:35 1020 30.12 849 25.07 21.8 71.2 38 7 44.7
21:40 1020 30.12 849 25.07 21.4 70.6 36 6 42.8
21:45 1020 30.12 849 25.07 21.2 70.1 37 6.2 43.1
21:50 1020 30.12 849 25.07 21 69.8 37 5.9 42.6
21:55 1020 30.12 849 25.07 21 69.8 36 5.4 41.8
22:00 1020 30.12 849 25.07 21 69.8 35 5 41
22:05 1020 30.12 849 25.07 20.8 69.4 34 4.7 40.5
22:10 1020 30.12 849 25.07 20.4 68.8 34 4.2 39.5
22:15 1020 30.12 850 25.1 20.6 69.1 34 4.3 39.7
22:20 1020 30.12 850 25.1 20.7 69.3 32 3.4 38.1
22:25 1020 30.12 850 25.1 20.8 69.4 36 5.2 41.3
22:30 1021 30.15 850 25.1 20.4 68.7 35 4.5 40
22:35 1021 30.15 850 25.1 20 68 38 5.3 41.6
22:40 1021 30.15 850 25.1 19.7 67.4 38 5.1 41.1
22:45 1021 30.15 850 25.1 19.3 66.7 39 5.1 41.3
22:50 1021 30.15 850 25.1 19 66.3 38 4.5 40.2
22:55 1021 30.15 850 25.1 19.1 66.4 39 5 41
23:00 1021 30.15 850 25.1 18.8 65.9 40 5 41
23:05 1021 30.15 850 25.1 18.7 65.6 40 4.8 40.6
23:10 1021 30.15 850 25.1 18.6 65.6 39 4.6 40.3
23:15 1021 30.15 850 25.1 18.7 65.6 40 5 41.1
23:20 1021 30.15 850 25.1 18.3 65 41 4.9 40.9
23:25 1021 30.15 850 25.1 18.3 64.9 39 4.1 39.3
23:30 1021 30.15 850 25.1 18.5 65.2 39 4.3 39.7
23:35 1021 30.15 850 25.1 18.3 64.9 41 4.8 40.6
23:40 1021 30.15 850 25.1 17.9 64.2 43 5.2 41.4
23:45 1021 30.15 850 25.1 17.6 63.6 42 4.6 40.3
23:50 1021 30.15 850 25.1 17.7 63.9 43 5 41.1
23:55 1021 30.15 850 25.1 17.6 63.6 44 5.4 41.6
24:00 1021 30.15 850 25.1 17.1 62.7 45 5 41.1